STARLINK-3107, 49171

Orbit data source: Space-Track

STARLINK-3107, 49171 is a payload satellite owned by SpaceX/Seattle (US) in LEO that was launched on Tue, 14 Sep 2021 UTC via an FALCON 9 launch vehicle from the Air Force Western Test Range (AFWTR). Payload-class satellites include a variety of spacecraft equipped with specific instruments for various scientific and technological missions. These include communications satellites like Starlink; space stations such as the ISS; scientific satellites like the Hubble; Earth observation satellites from companies like Planet Labs, Umbra, and HawkEye 360; GPS; miniature CubeSats for education and research; and military/defense satellites.

Loading next visibility...
Identifier
49171, 2021-082AT
Orbit
LEO
Country
Flag of USUS
Related business
Manufacturer
SpaceX/Seattle
Mission
Partially operational Commercial Communications
Bus & Motor
STARLINK, Unknown motor
Mass
297 kg wet, ~275 kg dry
Launch date (UTC)
2021-09-14 (4 years ago)
Launch vehicle
FALCON 9
Launch site
Air Force Western Test Range (AFWTR)
Object type
Payload
Rocket body
Debris
Shape & HBR
Box + 1 Pan, 10.1 m
Radar Cross Section
13.562 m², Large (>1 m²)

Expand to show TLE details & history
Last TLE update: 15 hours ago

TLE from 15 hours ago
0 STARLINK-3107
1 49171U 21082AT  25286.55611813  .00018316  00000-0  13469-2 0  9992
2 49171  69.9976 304.0335 0002722 299.7840  60.3050 15.03425749225137
Epoch: 2025-10-13T13:20Z
TLE epoch observation values (Epoch: 2025-10-13T13:20:48.606Z)
Latitude
-0.00009°
Longitude
81.47374°
Altitude
557.837 km
Speed
7.583 km/s
True Right ascension
20h 16m 08s
True Declination
0° 00' 00"
Sunlit
Object was in daylight at epoch
Visualization orbit readout
Latitude
Unknown
Longitude
Unknown
Altitude
Unknown
Speed
Unknown
Apparent Right ascension
Unknown
Apparent Declination
Unknown
Sunlit
N/A
Visualization observer readout
Local Sidereal Time
22:31:39
Azimuth
Unknown
Elevation
Unknown
Doppler factor
Unknown
Orbital elements
Apogee altitude
556.173 km
Perigee altitude
552.399 km
Semi-major axis
6,932.423 km
Eccentricity
0.00027
Inclination
69.9976°
RAAN
304.0335°
Arg. of periapsis
299.784°
True anomaly
60.3321°
Mean anomaly
60.305°
Eccentric anomaly
60.31855°
Mean motion
3.76024 °/min
Orbital period
95.74 mins
BSTAR
0.0013469
Loading maneuver chart data...
Computing Atmospheric mass density...
Loading historical data...
Loading historical data...
Loading historical data...
Loading historical data...
Loading historical data...
Loading historical data...
Loading historical data...

Documentation

Showing up to 5 results
|